Torna al catalogo

STARLINK-35340

AttivoComunicazioniVLEO
NORAD 66022·PAYLOAD·🇺🇸 United States

Lanciato Oct 16, 2025 da Cape Canaveral Space Force Station

Loading…

Prossimi Passaggi (prossime 24 ore)

TLE

AggiornatoSource: CelesTrak SupGP

Epoca: Sep 15, 2026, 03:21 UTC

1 66022C 25232T   26258.14006944  .00026545  00000+0  78418-3 0  2581
2 66022  53.1585 303.0710 0001186  91.5117 258.7180 15.34382017    15

Traccia STARLINK-35340 in tempo reale con AllMySat

Download on the App Store